CAPE
3290 3426 3416 3089 1832 2115 1608 1840 2174 1865 1667 1760 2396 2072 2083 1811 1846 2255 1698 1841 2134 1636
3567 3392 3140 2747 2673 2087 1867 1981 2584 2425 2206 2125 2385 2354 2829 1649 1672 2191 1847 1630 2228 1784
3158 3320 2912 2751 3066 2953 2363 1841 2074 2095 2501 1966 1925 2128 2768 2310 2606 2842 1706 1021 2511 1801
3242 2966 2935 2652 2698 2849 2883 2538 2177 2713 2639 2611 2373 2118 2746 2911 2659 2676 2746 2428 2267 2289
2158 2760 2277 2244 1947 1667 2094 2680 2877 2595 2835 2508 2487 2411 2476 1997 1796 2469 1886 2103 2560 2046
0 0 233 774 1388 2051 2329 2120 2040 2910 2699 2526 2617 2486 2882 2998 2686 2402 2465 2605 2602 2665
0 0 0 36 60 73 468 1020 1669 2082 2420 2437 2526 2555 2591 2572 2455 2473 2238 2682 2601 2677
80 92 157 213 283 231 221 181 256 479 892 2010 2150 2395 2391 2368 2536 2618 2245 2683 2605 2335
224 360 344 376 442 458 374 380 378 322 404 393 201 463 570 1035 1931 2092 2411 2508 2353 2964
103 78 38 7 14 20 116 258 408 338 393 562 541 37 0 208 206 148 1371 2220 2125 2148
7 7 9 11 20 38 54 61 64 72 309 591 423 4 0 28 358 198 306 898 1504 2492
14 21 24 20 20 28 29 94 50 119 322 550 606 68 0 0 348 255 696 889 1115 1484
15 20 20 23 26 38 42 28 21 28 113 101 343 141 10 0 16 169 39 502 740 336
9 11 15 21 32 17 22 35 29 37 33 30 10 44 13 6 154 69 64 58 94 77
CIN
0 0 -5 -3 -1 -7 -24 -7 -4 0 0 0 -1 0 0 0 0 0 0 0 0 0
0 0 -1 -4 0 0 0 -9 -1 -2 -2 0 0 -1 0 0 0 -1 0 0 0 0
-1 0 -2 -4 0 0 0 -1 -1 -1 0 -1 0 0 0 0 0 0 0 0 0 -4
-1 0 0 -1 0 -1 0 0 0 0 0 0 -1 0 0 0 0 0 0 0 0 0
-2 0 0 0 0 -2 0 -3 -5 0 0 -4 -2 0 -1 0 0 0 0 0 0 0
0 0 -128 -33 -7 0 -1 0 0 -2 -1 -1 -2 -4 0 0 0 0 0 0 0 0
0 0 0 -253 -235 -231 -66 -3 0 -1 0 0 0 0 0 -1 0 0 0 0 0 0
-201 -187 -154 -132 -105 -131 -143 -159 -122 -49 -6 0 0 0 0 0 0 0 0 0 0 0
-163 -111 -113 -100 -78 -75 -90 -90 -87 -91 -64 -62 -108 -116 -70 -23 0 0 0 0 0 0
-196 -207 -200 -65 -292 -293 -217 -146 -92 -104 -83 -46 -40 -205 0 -137 -100 -141 0 0 0 0
-20 0 0 0 -113 -256 -245 -245 -256 -244 -119 -61 -127 -138 0 -97 -68 -132 -96 0 0 0
0 0 0 0 0 -190 0 -223 -264 -205 -125 -67 -58 -244 0 0 -72 -118 -27 -1 0 0
0 0 0 0 0 0 -141 0 0 -89 -243 -288 -164 -232 -6 -2 -22 -157 -76 -35 -6 -77
0 0 0 0 0 0 0 0 0 0 0 0 -1 -213 -189 -13 -199 -226 -228 -237 -185 -161
Wind_Speed
6 4 6 7 2 8 6 7 10 9 9 9 8 11 10 8 8 9 8 9 7 8
5 5 8 5 2 6 3 8 10 8 8 9 8 7 9 9 9 9 7 8 9 8
5 4 4 6 5 4 5 4 2 6 5 7 10 11 10 10 10 10 8 8 7 6
2 2 4 5 6 5 7 6 7 7 8 8 9 10 10 10 11 10 10 10 9 8
5 3 2 4 6 7 7 5 6 8 8 7 9 10 10 13 12 12 12 11 11 11
4 4 2 3 3 3 5 7 8 8 9 10 10 9 10 11 12 13 12 12 12 12
6 6 5 4 5 6 5 6 6 7 9 10 10 11 11 10 12 13 13 13 12 12
6 6 7 6 6 6 7 8 8 9 8 7 8 9 11 12 12 12 14 14 13 15
7 7 8 8 8 8 8 9 9 9 10 9 9 6 4 5 9 12 12 13 15 14
8 9 9 9 9 10 10 10 10 11 11 11 11 9 5 4 10 11 10 12 13 14
8 9 9 10 10 9 9 9 9 11 11 11 11 9 8 8 11 12 13 13 13 12
8 9 10 10 11 10 10 10 10 10 11 11 11 10 8 7 12 13 13 13 13 14
10 11 11 11 11 10 11 12 11 12 12 13 13 12 11 9 11 14 13 14 15 17
7 8 10 10 8 9 11 10 11 10 11 13 14 16 12 10 11 12 13 13 12 12
Wind_Direction
237 251 220 231 269 191 203 201 168 203 204 217 207 210 212 216 227 226 208 223 262 296
225 244 322 330 259 205 220 179 183 186 203 208 211 221 223 223 228 258 216 234 220 236
183 210 244 269 267 296 315 227 217 199 237 236 218 208 221 237 201 237 241 242 243 281
349 271 221 236 244 236 251 246 222 219 239 213 229 227 221 238 261 225 223 245 273 226
94 127 314 296 277 273 265 233 235 234 233 244 242 216 218 228 236 227 246 243 239 247
45 25 44 5 340 293 300 290 271 205 241 245 245 241 237 232 236 244 243 238 240 235
14 12 16 359 351 328 327 305 277 278 278 259 254 256 252 250 245 243 244 242 246 241
356 348 338 337 332 322 325 322 313 302 294 259 254 252 254 256 257 255 255 258 260 252
341 340 330 327 323 315 304 301 295 290 288 287 285 96 153 258 265 263 262 259 257 256
327 327 325 324 317 309 305 302 294 289 286 285 284 299 298 248 281 282 272 255 258 260
319 318 317 314 311 308 303 298 293 289 288 286 281 277 260 221 267 275 273 274 272 256
319 313 313 310 313 313 304 299 296 289 283 278 275 270 261 240 274 271 268 265 264 266
342 322 315 315 308 315 309 298 302 309 310 304 293 275 262 253 275 273 271 266 254 233
301 327 298 298 326 319 305 299 295 300 299 292 290 292 280 238 260 270 277 274 272 270